Location: *
(44.1392°N, 4.8079°E)
Time: 21:59:45
(UTC+00:00)

ERBS - Pass Details

Date: 21 June 2021
Orbit: 397 x 416 km, 57.0° (Epoch: 02 August)

Event Time Altitude Azimuth Distance (km) Brightness Sun altitude
Exits shadow 01:36:10 28° 137° (SE) 773 3.4 -17.6°
Maximum altitude 01:36:22 29° 129° (SE) 768 3.4 -17.6°
Drops below altitude 10° 01:39:12 10° 68° (ENE) 1,450 5.7 -17.3°
Sets 01:41:26 0° 56° (ENE) 2,315 7.1 -17.1°
